Location: Recife
(8.0585°S, 34.8848°W)
Time: 13:20:55
(UTC-03:00)

Injun/Solrad 3 - Pass Details

Date: 15 April 2026
Orbit: 868 x 988 km, 66.8° (Epoch: 12 May)

Event Time Altitude Azimuth Distance (km) Brightness Sun altitude
Rises 09:47:04 0° 300° (WNW) 3,681 10.9 60.8°
Reaches altitude 10° 09:51:06 10° 276° (W) 2,728 10.3 61.6°
Maximum altitude 09:54:10 14° 246° (WSW) 2,450 10.0 62.2°
Drops below altitude 10° 09:57:14 10° 217° (SW) 2,709 10.2 62.8°
Sets 10:01:16 0° 192° (SSW) 3,636 10.8 63.5°
